Orbital elements of COSMOS 839 DEB
| Launched | 7 July 1976 |
| Flight ended | – |
| Launch site | Plesetsk Missile and Space Complex, Russia |
| Owner | Commonwealth of Independent States (former USSR) |
| NORAD ID | 20014 |
| Date fetched |
Epoch osculation |
Inc. [°] |
Ecc. | RA asc node [hr] |
Arg Peri. [°] |
Mean anom [°] |
Mean motion [rev/day] |
Abs. mag |
| Date fetched |
Epoch osculation |
Inc. [°] |
Ecc. | RA asc node [hr] |
Arg Peri. [°] |
Mean anom [°] |
Mean motion [rev/day] |
Abs. mag |
| 2026 May 05 17:57 | 2026 May 04 14:50:25 | 65.9038 | 0.06480 | 23.1828 | 113.1942 | 285.5977 | 12.47542 | – |
| 2026 May 04 17:57 | 2026 Apr 29 17:38:30 | 65.9040 | 0.06476 | 23.8274 | 115.1878 | 285.5977 | 12.47542 | – |
| 2026 May 03 17:57 | 2026 Apr 29 17:38:30 | 65.9040 | 0.06476 | 23.8274 | 115.1878 | 285.5977 | 12.47542 | – |
| 2026 May 02 17:57 | 2026 Apr 29 17:38:30 | 65.9040 | 0.06476 | 23.8274 | 115.1878 | 285.5977 | 12.47542 | – |
| 2026 May 01 17:56 | 2026 Apr 29 17:38:30 | 65.9040 | 0.06476 | 23.8274 | 115.1878 | 285.5977 | 12.47542 | – |
| 2026 Apr 30 17:56 | 2026 Apr 29 17:38:30 | 65.9040 | 0.06476 | 23.8274 | 115.1878 | 285.5977 | 12.47542 | – |
| 2026 Apr 29 17:57 | 2026 Apr 24 03:22:31 | 65.9043 | 0.06469 | 0.5658 | 117.4888 | 285.5977 | 12.47542 | – |
| 2026 Apr 28 17:56 | 2026 Apr 24 03:22:31 | 65.9043 | 0.06469 | 0.5658 | 117.4888 | 285.5977 | 12.47542 | – |
| 2026 Apr 27 17:58 | 2026 Apr 24 03:22:31 | 65.9043 | 0.06469 | 0.5658 | 117.4888 | 285.5977 | 12.47542 | – |
| 2026 Apr 26 17:58 | 2026 Apr 24 03:22:31 | 65.9043 | 0.06469 | 0.5658 | 117.4888 | 285.5977 | 12.47542 | – |
| 2026 Apr 25 17:58 | 2026 Apr 24 03:22:31 | 65.9043 | 0.06469 | 0.5658 | 117.4888 | 285.5977 | 12.47542 | – |
| 2026 Apr 24 17:59 | 2026 Apr 24 03:22:31 | 65.9043 | 0.06469 | 0.5658 | 117.4888 | 285.5977 | 12.47542 | – |
| 2026 Apr 23 17:57 | 2026 Apr 18 05:00:43 | 65.9040 | 0.06462 | 1.3488 | 119.9436 | 285.5977 | 12.47542 | – |
| 2026 Apr 22 17:57 | 2026 Apr 18 05:00:43 | 65.9040 | 0.06462 | 1.3488 | 119.9436 | 285.5977 | 12.47542 | – |
| 2026 Apr 21 17:57 | 2026 Apr 18 05:00:43 | 65.9040 | 0.06462 | 1.3488 | 119.9436 | 285.5977 | 12.47542 | – |
| 2026 Apr 20 17:57 | 2026 Apr 18 05:00:43 | 65.9040 | 0.06462 | 1.3488 | 119.9436 | 285.5977 | 12.47542 | – |
| 2026 Apr 19 17:58 | 2026 Apr 18 05:00:43 | 65.9040 | 0.06462 | 1.3488 | 119.9436 | 285.5977 | 12.47542 | – |
| 2026 Apr 18 17:56 | 2026 Apr 12 19:31:04 | 65.9036 | 0.06457 | 2.0609 | 122.1905 | 285.5977 | 12.47542 | – |
| 2026 Apr 16 17:57 | 2026 Apr 12 19:31:04 | 65.9036 | 0.06457 | 2.0609 | 122.1905 | 285.5977 | 12.47542 | – |
| 2026 Apr 14 17:57 | 2026 Apr 12 19:31:04 | 65.9036 | 0.06457 | 2.0609 | 122.1905 | 285.5977 | 12.47542 | – |
| 2026 Apr 13 17:57 | 2026 Apr 12 19:31:04 | 65.9036 | 0.06457 | 2.0609 | 122.1905 | 285.5977 | 12.47542 | – |
| 2026 Apr 12 17:57 | 2026 Apr 08 06:25:12 | 65.9032 | 0.06453 | 2.6608 | 124.0914 | 285.5977 | 12.47542 | – |
| 2026 Apr 11 17:57 | 2026 Apr 08 06:25:12 | 65.9032 | 0.06453 | 2.6608 | 124.0914 | 285.5977 | 12.47542 | – |
| 2026 Apr 10 17:58 | 2026 Apr 08 06:25:12 | 65.9032 | 0.06453 | 2.6608 | 124.0914 | 285.5977 | 12.47542 | – |
| 2026 Apr 09 18:01 | 2026 Apr 08 06:25:12 | 65.9032 | 0.06453 | 2.6608 | 124.0914 | 285.5977 | 12.47542 | – |
| 2026 Apr 08 17:57 | 2026 Apr 08 06:25:12 | 65.9032 | 0.06453 | 2.6608 | 124.0914 | 285.5977 | 12.47542 | – |